Abakan, Russia
Current Conditions -  °F | °C
As of 3:00 AM on Wednesday 22 Oct 2014 (Local Time) from UNAA Reporting Station
Overcast Overcast  
Wind Chill: 28°   Ceiling: 10000
Heat Index: 37°   Visibility: 6mi
Dew Point: 27°   Wind: 16mph
Humidity: 65%   Direction: 220°SW
Pressure: 30.12"   Gusts: NA
Location:  53.72°N, 91.43°E
Report Text: UNAA 212000Z 22007MPS 9999 SCT030CB OVC100 03/M03 Q1020 NOSIGRMK QFE742 20290040
Loading
Personal Weather Stations






























Interactive Weather Map
Tropical Storm Tracking
New forecast layout! Learn more

10-Day Weather Forecast

Advertisements
Track Severe Weather on mobile